Regional Weather Roundup
Issued by NWS Kansas City/Pleasant Hill, MO

Home | Current Version | Previous Version | Graphics & Text | Print | Product List | Glossary Off
Versions: 1 2 3 4 5 6 7 8 9 10 11 12 13 14 15 16 17 18 19 20 21 22 23 24 25 26 27 28 29 30 31 32 33 34 35 36 37 38 39 40 41 42 43 44 45 46 47 48 49 50

000
ASUS43 KEAX 192210
RWREAX

WEATHER ROUNDUP FOR EASTERN KANSAS AND NORTHWEST MISSOURI
NATIONAL WEATHER SERVICE KANSAS CITY/PLEASANT HILL MO
500 PM CDT SAT MAY 19 2018

KSZ040-057-103>105-MOZ028-029-037-043-192300-
...KANSAS CITY METROPOLITAN AREA...

CITY           SKY/WX    TMP DP  RH WIND       PRES   REMARKS
K.C. INTL      PTSUNNY   79  64  60 VRB6      29.87R
K.C. DOWNTOWN  CLOUDY    79  64  60 W8        29.86R
LEES SUMMIT    PTSUNNY   79  64  60 S9        29.87R
OLATHE - IXD   CLOUDY    78  67  68 S3        29.88R
OLATHE - OJC   PTSUNNY   77  65  66 SW5       29.88R
LAWRENCE       CLOUDY    80  64  58 W3        29.86R

$$

MOZ001>008-011>017-020>025-030>033-038>040-044>046-053-054-192300-
...NORTHERN AND CENTRAL MISSOURI...

CITY           SKY/WX    TMP DP  RH WIND       PRES   REMARKS
ST. JOSEPH     MOSUNNY   85  58  39 W9        29.84R
MOSBY          MOCLDY    81  61  50 W3        29.85R
WARRENSBURG    CLOUDY    77  63  61 SW9       29.88R
WHITEMAN AFB   MOSUNNY   80  65  61 S6        29.84R
CLINTON        NOT AVBL
SEDALIA        CLOUDY    78  66  66 S5        29.88R
WARSAW         NOT AVBL
CHILLICOTHE      N/A     82  61  48 NW6       29.84S
KIRKSVILLE     CLOUDY    78  65  63 VRB7      29.84F

$$

MOZ041-047>049-056>058-063>065-088>090-097-192300-
...EASTERN AND SOUTHERN MISSOURI...

CITY           SKY/WX    TMP DP  RH WIND       PRES   REMARKS
ST. LOUIS INTL CLOUDY    73  63  70 S12       29.86F
SPIRIT OF STL  CLOUDY    71  61  70 S8        29.83F
COLUMBIA       CLOUDY    74  63  68 W9        29.89R
JEFFERSON CITY CLOUDY    70  62  76 S5        29.87R
ROLLA          CLOUDY    64  60  87 S13       29.90R
OSAGE BEACH    CLOUDY    70  64  81 MISG      29.90R
SPRINGFIELD    SUNNY     84  69  60 S15       29.87R
BRANSON        MOSUNNY   88  66  48 S10       29.90S HX  90
JOPLIN         CLOUDY    85  64  49 W12G22    29.88R
WEST PLAINS    CLOUDY    73  66  78 E7        29.93F

$$

IAZ060-094-KSZ022-034>040-054-083-096-NEZ052-066-093-192300-
...KANSAS...SOUTHEAST NEBRASKA AND IOWA...

CITY           SKY/WX    TMP DP  RH WIND       PRES   REMARKS
TOPEKA         PTSUNNY   80  63  55 CALM      29.86R
MANHATTAN      MOSUNNY   82  60  47 VRB3      29.86R
EMPORIA        CLOUDY    76  68  76 MISG      29.85F
CHANUTE        LGT RAIN  73  68  84 SE8       29.88F
WICHITA        PTSUNNY   79  69  71 SE6       29.86R
OMAHA          CLOUDY    64  55  72 NW16      29.93F
LINCOLN        CLOUDY    62  53  72 N14       29.94F
FALLS CITY     PTSUNNY   77  58  51 NW14G21   29.87R
LAMONI         CLOUDY    78  63  59 SW5       29.83F
DES MOINES     CLOUDY    73  66  78 N12       29.85F

$$




USA.gov is the U.S. government's official web portal to all federal, state and local government web resources and services.